"Pseudo-MPEC" for C077QQ2

Created 2019 Feb 14 3:18:10 UT using Find_Orb

Click here for an explanation of pseudo-MPECs

 
 Astrometry: 
     C077QQ2  C2019 02 12.23186409 30 14.01 +05 35 58.3    ~2E3I 19.12RUNEOCPI41
     C077QQ2  C2019 02 12.23221109 30 14.62 +05 36 16.4    ~2E3I 19.12RUNEOCPI41
     C077QQ2  C2019 02 12.23371 09 30 15.95 +05 37 51.8    ~2C6X 19.8 GVNEOCPG96
     C077QQ2  C2019 02 12.23937 09 30 26.54 +05 43 07.5    ~2C6X 19.8 GVNEOCPG96
     C077QQ2  C2019 02 12.24624809 30 41.20 +05 49 16.1    ~2E3I 18.66RUNEOCPI41
     C077QQ2  C2019 02 12.24659509 30 41.77 +05 49 35.7    ~2E3I 18.66RUNEOCPI41
     C077QQ2  C2019 02 12.25067 09 30 47.56 +05 53 30.0    ~2C6X 19.4 GVNEOCPG96
     C077QQ2  C2019 02 12.27222709 31 29.74 +06 13 15.3    ~2E3I 18.66RUNEOCPI41
     C077QQ2  C2019 02 12.27257509 31 30.40 +06 13 34.7    ~2E3I 18.66RUNEOCPI41
     C077QQ2 KC2019 02 12.28426209 31 50.17 +06 23 59.8    ~2CBI 19.1 GVNEOCPV03
     C077QQ2 KC2019 02 12.28695609 31 55.16 +06 26 27.9    ~2CBI 18.7 GVNEOCPV03
     C077QQ2 KC2019 02 12.29988309 32 19.07 +06 38 17.8    ~2CBI 18.5 GVNEOCPV03
     C077QQ2 KC2019 02 12.30161509 32 22.28 +06 39 53.4    ~2CBI 18.1 GVNEOCPV03
     C077QQ2 KC2019 02 12.30331009 32 25.46 +06 41 25.7    ~2CBI 18.5 GVNEOCPV03
     C077QQ2  C2019 02 12.31006609 32 39.87 +06 47 56.2    ~2E3I 18.58RUNEOCPI41
     C077QQ2  C2019 02 12.31041409 32 40.55 +06 48 15.5    ~2E3I 18.58RUNEOCPI41
     C077QQ2  C2019 02 12.33088509 33 18.22 +07 06 49.0    ~2E3I 18.82RUNEOCPI41
     C077QQ2  C2019 02 12.35694 09 34 03.90 +07 30 27.4    ~2CBI 18.4 GVNEOCPI52
     C077QQ2  C2019 02 12.35856 09 34 06.88 +07 31 55.4    ~2CBI 18.6 GVNEOCPI52
     C077QQ2  C2019 02 12.35937 09 34 08.36 +07 32 39.1    ~2CBI 18.3 GVNEOCPI52
     C077QQ2  C2019 02 12.36070209 34 12.93 +07 33 48.0    ~2E3I 18.56RUNEOCPI41
     C077QQ2  C2019 02 12.36104909 34 13.56 +07 34 06.5    ~2E3I 18.56RUNEOCPI41
     C077QQ2  C2019 02 12.41577109 35 53.64 +08 22 56.7    ~2E3I 18.82gUNEOCPI41
     C077QQ2  C2019 02 12.41611809 35 54.29 +08 23 13.8    ~2E3I 18.82gUNEOCPI41
     C077QQ2  C2019 02 12.46610 09 37 24.54 +09 07 13.2    ~2CBX 18.3 GVNEOCPI52
     C077QQ2  C2019 02 12.46659 09 37 25.44 +09 07 39.2    ~2CBX 18.3 GVNEOCPI52
     C077QQ2  C2019 02 12.46708 09 37 26.33 +09 08 04.5    ~2CBX 18.2 GVNEOCPI52
     C077QQ2 KC2019 02 12gve!ZAstrometry'(/4x8eT!vYcBQ\VOXd,upvC]cse.*m=rE0^TL01
     C077QQ2 KC2019 02 12Z@H8*T3*08m^:XlxLcqqs/K*C9L@DTBlFL4'*D?x\30N2\8].1F3L01
     C077QQ2 KC2019 02 12@KgdRgx3LwR$Y?4.+qBYehl[WMWAVR_[?#g,2S,62Kt1vNTU:B!uL01
     C077QQ2 KC2019 02 124t$k;dGwg3(8an46HCPDE%RM2'fKo:OaUn.KE/N2v0K7$9M]W%\]L01
     C077QQ2 KC2019 02 12.CJoyrXJ=ARP=cUTAn\HQ9'3v^wFwu`JEU#rgM5.Z?KwtZriptt/L01
     C077QQ2 KC2019 02 127?[QCZ-FRtNB].a._\redacted;BW%8RySabm_t]6=qwdJLlF/T-587
     C077QQ2 KC2019 02 12`Hb0c$Wdp^=aU58s9de_M?Fy2jG78-9:p#$N5BU+ZLFia_cT#(m+587
     C077QQ2 KC2019 02 12.88831609 50 52.62 +14 54 51.5    ~2CLm 18.7 GVNEOCPJ95
     C077QQ2 KC2019 02 12.89089509 50 57.08 +14 56 51.5    ~2CLm 18.8 GVNEOCPJ95
     C077QQ2 KC2019 02 12Kv8?k.vo]1klq%=nZWh`\1bPoP4V08OU!KJ8]o^Ttqi6NF%.`;sk587
     C077QQ2 KC2019 02 12Z8E5cIM?e.mhZ\X.]7pwRiC1-SpFgbEW%H^AJ45lHKJ0.b`:o`8G587
     C077QQ2 KC2019 02 12.89407509 51 02.53 +14 59 20.4    ~2CLm 18.9 GVNEOCPJ95
     C077QQ2 KC2019 02 1292*Jd]tSrf!x72`S8Fmb,_B-.0J?)p+h2U,oP_B;t-'Z`s'.5gGX203
     C077QQ2 KC2019 02 12]NlK:G1cwK+nclickf%!G:@A$0bKh]'07_qtgcy[d0Db[*0!ce#'203
     C077QQ2 KC2019 02 12Ox8_5Q0/MbS7swS.[cdEO@V=!JMy:e8P94OggOt7^Uy3v!C9V9rfZ80
     C077QQ2 KC2019 02 12f0[fH];gW-Aob@\^AZRxsJJ:A]E+T9LeNhQw%G6T_,p%B/;RPe#jC95
     C077QQ2 KC2019 02 12r4W:?.?fL/te;kj8TD:owjZT4tHJ@=,l+c,Kq%kw5fb*1,BeQ]4(204
     C077QQ2 KC2019 02 12@cVLUajbf;AX9VxUa/b]NmtbO0erRI8oYKu.gaJbs=?qrZZZ=b'8C95
     C077QQ2 KC2019 02 12AEXjXv;S+\o/EhL:DRNYok:aoq/^lhereuYk-IJ*?#iULxToJL/HZ80
     C077QQ2 KC2019 02 125RmEj9tI+(LU2k2U!_SU.W(=Y,.;4kkJw8IgQCj6%kkbXFcqyr%0204
     C077QQ2 KC2019 02 12OOPyLh9sF]0%Uqb3=%^qQc',9KGx0vM`PT(RGVR+fX+AOG/Fm=W1C95
     C077QQ2 KC2019 02 12';PAk*$wQZ*6uukv*kR/4cTwg$j_W@[H$_y/s)FsEAnjS\@+k.HyZ80
     C077QQ2 KC2019 02 12YSx[W]4g03)=.Q.L*DGiiUkh;[EqnbPH`e%wF-Y65hBCnLA;p0Ka203
     C077QQ2 KC2019 02 12:B9!.rR.?`RP;tr9iyZ^IEcdw*aOBRjdEEL=wZ67:ih0c:forIRmC95
     C077QQ2 KC2019 02 12Z^B/ZNyEsDqjv,'3FpU0YJYfqqWhS1I3pEC*svOlu!\qa=*a3:rG204
     C077QQ2 KC2019 02 12I0ULC%q@0jq96l:McUjG=X;5%%@8;w\d-kk*qb%[-vtChiJ+Do,;C95
     C077QQ2 KC2019 02 13DBHZa/KR9vnr1!n`y6OIuM(ik*?weDA.FUIU[UI1IACK6)J2s_l^734
     C077QQ2 KC2019 02 13FVomfrHGMK2wm/H]8Lc$E?dkWlOyHdaotVb:)d;VjNS]]UtP'7T'734
     C077QQ2 KC2019 02 13hgeexplanationO\:_xTh=pE-DRD[.r15/f@85/W6wEVL[peZJ.Q734
     C077QQ2 KC2019 02 14.03442310 21 29.31 +27 10 31.9    ~2E23 19.3 GVNEOCPJ95
     C077QQ2 KC2019 02 14.04519810 21 44.04 +27 16 05.5    ~2E23 19.3 GVNEOCPJ95
     C077QQ2 KC2019 02 14.05539910 21 57.96 +27 21 19.9    ~2E23 19.2 GVNEOCPJ95

Station data:
(203) GiaGa Observatory  (N45.541408 E8.995500)  Italy. 0.13-m f/6.4
   refractor.
(204) Schiaparelli Observatory  (N45.867933 E8.770800)  Italy.  Observer L.
   Buzzi. 0.60-m f/4.64 Newtonian + CCD.
(587) Sormano  (N45.882949 E9.229180)  Italy.  Observers F. Manca, A. Testa.
   Measurer F. Manca. 0.5-m + CCD.
(734) Farpoint Observatory, Eskridge  (N38.890107 W96.001400)  US/Kansas.
   Observer G. Hug. 0.69-m reflector + CCD.
(C95) SATINO Remote Observatory, Haute Provence  (N43.932042 E5.712390)
   France.
(G96) Mt. Lemmon Survey  (N32.442754 W110.788720)  US/Arizona.  Observers B.
   M. Africano, E. J. Christensen, G. A. Farneth, D. C. Fuls, A. R. Gibbs, A.
   D. Grauer, H. Groeller, J. A. Johnson, R. A. Kowalski, S. M. Larson, G. J.
   Leonard, R. L. Seaman, F. C. Shelly. 1.5-m reflector + 10K CCD.
(I41) Palomar Mountain--ZTF  (N33.357340 W116.859780)  US/California. 1.2-m
   f/2.44 Oschin Schmidt + CCD.
(I52) Steward Observatory, Mt. Lemmon Station  (N32.442547 W110.788920)
   US/Arizona.  Observers B. M. Africano, E. J. Christensen, G. A. Farneth,
   D. C. Fuls, A. R. Gibbs, A. D. Grauer, H. Groeller, J. A. Johnson, R. A.
   Kowalski, S. M. Larson, G. J. Leonard, R. L. Seaman, F. C. Shelly. 1.0-m
   reflector + CCD.
(J95) Great Shefford  (N51.474969 W1.447003)  UK.  Observer P. Birtwhistle.
   0.40-m f/6.0 Schmidt-Cassegrain + CCD.
(L01) Višnjan Observatory, Tičan  (N45.290900 E13.749300)  Croatia.
   Observers K. Korlević, E. Pettarin. Measurer E. Pettarin. 1.0-m f/2.9
   reflector + CCD.
(V03) Big Water  (N37.083379 W111.668600)  US/Utah.  Observer D. Rankin.
   0.30-m reflector + CCD.
(Z80) Northolt Branch Observatory  (N51.554661 W0.371920)  UK.  Observer G.
   Wells. Measurer D. Bamberger. 0.25-m f/8 Ritchey-Chrétien + CCD.

Orbital elements:  C077QQ2
   Perihelion 2019 Jan 13.592889 +/- 0.0122 TT = 14:13:45 (JD 2458497.092889)
Epoch 2019 Feb 14.0 TT = JDT 2458528.5   Earth MOID: 0.0232   AutoNEOCP
M  13.85637603 +/- 0.026            (J2000 ecliptic)
n   0.44118595 +/- 0.000682         Peri.  323.10317 +/- 0.008
a   1.70891947 +/- 0.00176          Node   143.51569 +/- 0.000024
e   0.4434247 +/- 0.000577          Incl.   20.41802 +/- 0.016
P   2.23/815.97d           H 26.6   G  0.15   U  7.8  
q 0.95114220 +/- 8.23e-6    Q 2.46669673 +/- 0.00353
From 59 observations 2019 Feb. 12-14 (43.8 hr); mean residual 1".05
Residuals in arcseconds: 
190212 I41  .07-  .90+    190212 I41  .14+  .04+    190212 203  .41+  .16-    
190212 I41  .75-  .34-    190212 I41  .05+  .19-    190212 Z80  .38+  .24+    
190212 G96  2.7+  5.0+    190212 I41  .85-  .89-    190212 C95  .03+  1.0-    
190212 G96  2.1+  5.6+    190212 I41  .63-  2.2-    190212 204  .21-  .06-    
190212 I41  1.2+  1.8-    190212 I52  .10+  .88-    190212 C95  .71-  1.0+    
190212 I41  .02+  1.4-    190212 I52  .02+  .53-    190212 Z80  .22-  .25-    
190212 G96  .13-  .29+    190212 I52  .22-  .87-    190212 204  .16-  .42+    
190212 I41  .25+  1.5-    190212 L01  .44-  .33+    190212 C95  .59+  .10-    
190212 I41  .42+  1.3-    190212 L01  .02+  .05+    190212 Z80  .22+  .29+    
190212 V03  .24-  1.0-    190212 L01  .58+  .32+    190212 203  .12-  .37+    
190212 V03  .53-  1.2-    190212 L01  .39+  .10+    190212 C95  .74-  1.2-    
190212 V03  1.8-  1.1-    190212 L01  .16-  .35+    190212 204  .03+  .05+    
190212 V03  1.8-  .43-    190212 587  .51+  .15+    190212 C95  .84+  .44+    
190212 V03  1.2-  1.0-    190212 587  .20-  .59-    190213 734  .57+  .99+    
190212 I41  .02+  .24-    190212 J95  .14-  .29+    190213 734  .56+  .53+    
190212 I41  .58+  .03+    190212 J95  .08+  .33-    190213 734  .82+  1.5+    
190212 I41  .12+  3.2-    190212 587  .10-  .01-    190214 J95  .27-  .03+    
190212 I52  .34-  1.5-    190212 587  .07+  .05+    190214 J95  .01-  .09-    
190212 I52  .21-  .96-    190212 J95  .27-  .01-    190214 J95  .23+  .07-    
190212 I52  .30-  .98-    190212 203  .32-  .20-    

Ephemerides (geocentric):
Date (UTC) HH   RA              Dec         delta   r     elong  mag " sig PA
---- -- -- --  -------------   -----------  ------ ------ -----  --- ---- ---
2019 02 14 03  10 23 38.929   +27 58 22.73  .03284 1.0189 163.1 20.1 .131 169
2019 02 14 04  10 24 37.898   +28 19 00.96  .03308 1.0191 162.7 20.2 .130 169
2019 02 14 05  10 25 36.401   +28 39 19.95  .03332 1.0192 162.4 20.2 .130 170
2019 02 14 06  10 26 34.440   +28 59 19.97  .03356 1.0194 162.0 20.2 .129 171
2019 02 14 07  10 27 32.019   +29 19 01.32  .03380 1.0196 161.6 20.2 .129 172
2019 02 14 08  10 28 29.141   +29 38 24.29  .03404 1.0197 161.2 20.3 .128 173
2019 02 14 09  10 29 25.810   +29 57 29.16  .03428 1.0199 160.8 20.3 .128 174
2019 02 14 10  10 30 22.029   +30 16 16.22  .03453 1.0201 160.5 20.3 .128 175
2019 02 14 11  10 31 17.800   +30 34 45.74  .03478 1.0202 160.1 20.3 .127 176
2019 02 14 12  10 32 13.127   +30 52 58.02  .03502 1.0204 159.7 20.4 .127 177
2019 02 14 13  10 33 08.014   +31 10 53.33  .03527 1.0206 159.4 20.4 .127 178
2019 02 14 14  10 34 02.463   +31 28 31.94  .03553 1.0208 159.0 20.4 .127 179
